星链-3658 (STARLINK-3658 )

导读

STARLINK-3658是美国太空探索技术公司(SpaceX)研制运营的星链计划低轨通信卫星,于2022年3月19日发射升空,目前处于在轨运行状态。该卫星运行在约550公里高度的近地轨道,采用Starlink v1.5平台,具备高速数据传输和低延迟通信能力,旨在为全球尤其是网络覆盖不足区域提供高速互联网服务,助力推进全球互联网接入覆盖。

基本信息
目录编号:
52107
目录名称:
STARLINK-3658
国际标识:
2022-029V
轨道中心:
EARTH
卫星名称:
星链-3658
卫星全名:
星链-3658 (STARLINK-3658 )
卫星状态:
在轨 (已飞行1630 天)
发射日期:
2022-03-19 UTC
国别 :
美国 (US)
星等 :
--
轨道信息
数据来源 国际轨道数据
星历时间: 2026-09-03T23:37:25+0800
11小时前
查看轨道信息
半长轴: 6840.873km
偏心率: 0.0001242
轨道倾角: 53.161°
近地点辐角 87.444°
升交点赤经 348.136°
平近点角 272.670°
近地点: 461.886km
远地点: 463.586km
周期: 93.848分钟
每日圈数: 15.343893
详细信息
固有亮度:
5
最大亮度:
2.5
卫星平台:
Starlink v1.5
覆盖范围:
全球
运营商:
太空探索技术公司
运营商所在国:
美国
制造商(研发单位):
太空探索技术公司
制造商所在国:
美国
使用方式:
暂无
卫星简介
星链(Starlink)计划是由太空探索技术公司(SpaceX)提出的一个巨型低轨卫星互联网星座项目,计划在2019年至2024年间在太空搭建由约1.2万颗卫星组成的“星链”网络,其中1584颗将部署在地球上空550千米处的近地轨道,并从2020年开始工作。该卫星仍在工作。
2D轨道图
3D轨道图
轨道高度分析图
轨道倾角分析图
轨道综合分析图
查看轨道综合分析图
交会数据列表
事件ID 空间交会对象 最接近时刻(TCA) 交会距离 交会风险概率(CRP) 交会风险指数(CRI) 操作
CDM_260905-075005-210706-033021
2026-09-05T
07:50:55+0000
0.873 km
远距离
1.155986E-5 中风险 0.56
CDM_260905-132405-210706-151421
2026-09-05T
13:24:28+0000
1.354 km
极远距离
4.381633E-6 低风险 0.48
CDM_260905-101105-210706-033021
2026-09-05T
10:11:37+0000
1.478 km
极远距离
2.023022E-6 低风险 0.41
CDM_260905-145805-210706-151421
2026-09-05T
14:58:16+0000
1.870 km
极远距离
1.683426E-6 低风险 0.4
CDM_260830-170505-210705-262121
2026-08-30T
17:05:20+0000
2.985 km
极远距离
1.203828E-6 低风险 0.37
CDM_260905-083705-210706-033021
2026-09-05T
08:37:49+0000
1.857 km
极远距离
1.084036E-6 低风险 0.36
CDM_260903-051905-210705-825021
2026-09-03T
05:19:17+0000
1.797 km
极远距离
1.038338E-6 低风险 0.35
CDM_260905-061705-210706-033021
2026-09-05T
06:17:08+0000
2.179 km
极远距离
7.628731E-7 极低风险 0.33